Location: downtown San Diego
(32.7310°N, 117.1990°W)
Time: 23:50:07
(UTC-07:00)

OAO 1 Rocket - Visible Passes

Search period start: 24 May 2019 00:00
Search period end: 03 June 2019 00:00
Orbit: 743 x 755 km, 35.0° (Epoch: 24 May)

Date Brightness Start Highest point End Pass type
(mag) Time Alt. Az. Time Alt. Az. Time Alt. Az.
24 May 5.0 04:15:32 26° SSW 04:18:01 44° SSE 04:23:03 10° E visible
25 May 5.2 03:31:58 35° SSE 03:32:10 35° SSE 03:36:59 10° E visible
25 May 4.5 05:12:18 10° WSW 05:17:38 89° NNW 05:22:58 10° ENE visible
26 May 6.2 02:48:22 22° ESE 02:48:22 22° ESE 02:50:49 10° E visible
26 May 4.4 04:28:07 21° WSW 04:31:42 80° SSE 04:37:02 10° ENE visible
27 May 4.4 03:44:29 49° SW 03:45:48 68° SSE 03:51:05 10° ENE visible
28 May 4.9 03:00:50 49° ESE 03:00:50 49° ESE 03:05:06 10° E visible
28 May 4.6 04:40:35 11° W 04:45:35 73° N 04:50:55 10° ENE visible
29 May 6.3 02:17:10 22° E 02:17:10 22° E 02:19:06 10° E visible
29 May 4.5 03:56:55 29° W 03:59:38 79° N 04:04:57 10° ENE visible
30 May 4.3 03:13:14 76° W 03:13:41 87° NNW 03:19:01 10° ENE visible
30 May 4.8 04:54:18 10° W 04:59:34 68° N 05:04:53 10° E visible
31 May 5.3 02:29:35 42° E 02:29:35 42° E 02:33:04 10° ENE visible
31 May 4.7 04:09:19 16° W 04:13:36 68° N 04:18:53 10° E visible
01 Jun 6.6 01:45:56 17° E 01:45:56 17° E 01:47:07 10° ENE visible
01 Jun 4.6 03:25:40 38° WNW 03:27:37 69° N 03:32:55 10° E visible
01 Jun 4.6 05:08:12 10° WNW 05:13:31 84° N 05:18:51 10° E visible
02 Jun 4.6 02:42:05 68° NNE 02:42:05 68° NNE 02:46:57 10° ENE visible
02 Jun 4.6 04:22:16 10° WNW 04:27:35 76° N 04:32:53 10° E visible
